TimeEDT,TemperatureF,Dew PointF,Humidity,Sea Level PressureIn,VisibilityMPH,Wind Direction,Wind SpeedMPH,Gust SpeedMPH,PrecipitationIn,Events,Conditions,WindDirDegrees,DateUTC
12:04 AM,68.0,66.2,94,29.75,4.0,SW,9.2,-,0.02,Rain,Rain,230,2013-09-21 04:04:00
12:13 AM,68.0,66.2,94,29.75,5.0,WSW,10.4,-,0.04,Rain,Light Rain,250,2013-09-21 04:13:00
12:24 AM,68.0,66.2,94,29.76,5.0,West,11.5,-,0.05,Rain,Light Rain,270,2013-09-21 04:24:00
12:41 AM,66.2,64.4,94,29.76,7.0,WNW,9.2,-,0.07,Rain,Light Rain,300,2013-09-21 04:41:00
12:52 AM,66.0,64.0,93,29.75,6.0,West,8.1,-,0.09,Rain,Light Rain,270,2013-09-21 04:52:00
1:34 AM,66.2,64.4,94,29.75,2.5,SW,5.8,-,0.10,Rain,Rain,220,2013-09-21 05:34:00
1:38 AM,64.4,64.4,100,29.75,3.0,SW,5.8,-,0.11,Rain,Rain,230,2013-09-21 05:38:00
1:45 AM,64.4,64.4,100,29.75,2.5,SW,4.6,-,0.14,Rain,Rain,220,2013-09-21 05:45:00
1:52 AM,64.9,64.0,97,29.74,3.0,SW,5.8,-,0.15,Rain,Rain,230,2013-09-21 05:52:00
2:14 AM,64.4,64.4,100,29.74,6.0,West,8.1,-,0.04,Rain,Light Rain,260,2013-09-21 06:14:00
2:52 AM,64.9,64.0,97,29.73,8.0,West,5.8,-,0.04,Rain,Light Rain,270,2013-09-21 06:52:00
3:52 AM,64.0,63.0,96,29.71,9.0,West,4.6,-,0.03,Rain,Light Rain,260,2013-09-21 07:52:00
4:52 AM,64.0,62.1,93,29.70,10.0,West,6.9,-,0.00,,Overcast,280,2013-09-21 08:52:00
5:32 AM,62.6,57.2,82,29.72,10.0,WNW,10.4,-,N/A,,Overcast,300,2013-09-21 09:32:00
5:49 AM,62.6,57.2,82,29.71,10.0,NW,6.9,-,N/A,,Overcast,310,2013-09-21 09:49:00
5:52 AM,61.0,57.9,90,29.70,10.0,NW,6.9,-,N/A,,Overcast,310,2013-09-21 09:52:00
6:52 AM,61.0,57.9,90,29.71,10.0,WNW,8.1,-,N/A,,Overcast,300,2013-09-21 10:52:00
7:52 AM,60.1,57.9,93,29.72,10.0,West,6.9,-,N/A,,Partly Cloudy,270,2013-09-21 11:52:00
8:52 AM,59.0,57.9,96,29.73,10.0,West,9.2,-,N/A,,Clear,280,2013-09-21 12:52:00
9:48 AM,60.8,57.2,88,29.75,10.0,WNW,9.2,-,N/A,,Mostly Cloudy,290,2013-09-21 13:48:00
9:52 AM,60.1,57.0,90,29.74,10.0,WNW,8.1,-,N/A,,Scattered Clouds,290,2013-09-21 13:52:00
10:01 AM,60.8,57.2,88,29.75,10.0,WNW,9.2,-,N/A,,Mostly Cloudy,290,2013-09-21 14:01:00
10:52 AM,62.1,57.0,84,29.74,10.0,WNW,11.5,-,N/A,,Mostly Cloudy,300,2013-09-21 14:52:00
11:30 AM,64.4,53.6,68,29.75,10.0,NW,13.8,20.7,N/A,,Overcast,310,2013-09-21 15:30:00
11:44 AM,64.4,53.6,68,29.75,10.0,NNW,13.8,20.7,N/A,,Mostly Cloudy,330,2013-09-21 15:44:00
11:52 AM,64.9,54.0,68,29.74,10.0,NNW,11.5,20.7,N/A,,Mostly Cloudy,330,2013-09-21 15:52:00
12:32 PM,64.4,53.6,68,29.75,10.0,NW,10.4,-,N/A,,Mostly Cloudy,310,2013-09-21 16:32:00
12:52 PM,66.0,52.0,60,29.75,10.0,NNW,13.8,21.9,N/A,,Scattered Clouds,330,2013-09-21 16:52:00
1:52 PM,66.9,52.0,59,29.75,10.0,NNW,15.0,21.9,N/A,,Mostly Cloudy,340,2013-09-21 17:52:00
2:52 PM,70.0,50.0,49,29.74,10.0,NW,15.0,23.0,N/A,,Partly Cloudy,320,2013-09-21 18:52:00
3:52 PM,68.0,46.0,45,29.75,10.0,NW,12.7,17.3,N/A,,Partly Cloudy,320,2013-09-21 19:52:00
4:52 PM,68.0,46.0,45,29.76,10.0,WNW,12.7,-,N/A,,Mostly Cloudy,300,2013-09-21 20:52:00
5:52 PM,66.9,44.1,44,29.78,10.0,WNW,13.8,-,N/A,,Partly Cloudy,290,2013-09-21 21:52:00
6:52 PM,63.0,45.0,52,29.79,10.0,WNW,6.9,-,N/A,,Clear,300,2013-09-21 22:52:00
7:52 PM,62.1,46.0,56,29.81,10.0,NW,10.4,-,N/A,,Overcast,310,2013-09-21 23:52:00
8:52 PM,60.1,46.9,62,29.83,10.0,NW,11.5,19.6,N/A,,Scattered Clouds,310,2013-09-22 00:52:00
9:52 PM,55.9,48.0,75,29.85,10.0,NW,6.9,-,N/A,,Clear,310,2013-09-22 01:52:00
10:52 PM,55.0,48.0,77,29.86,10.0,NW,6.9,-,N/A,,Clear,310,2013-09-22 02:52:00
11:52 PM,53.1,48.0,83,29.88,10.0,NW,5.8,-,N/A,,Clear,310,2013-09-22 03:52:00